CW1248 Weather Reports


Display with metric or nautical units.
time (UTC)temp
F
wind
direction
speed
MPH
gust
MPH
rain 1hr
in
rain 24hr
in
rain mn
in
humidity
%
barometer
mb
20260510134002 48 80 3.0 7.0 0.00 0.00 0.00 58 1020.3
20260510133503 47 85 4.0 7.0 0.00 0.00 0.00 59 1020.2
20260510133004 47 61 3.0 7.0 0.00 0.00 0.00 60 1020.2
20260510132503 46 74 3.0 7.0 0.00 0.00 0.00 61 1020.2
20260510132003 46 47 3.0 7.0 0.00 0.00 0.00 63 1020.1
20260510131512 45 67 3.0 7.0 0.00 0.00 0.00 62 1020.0
20260510131003 45 63 1.0 4.0 0.00 0.00 0.00 64 1020.1
20260510130503 44 48 1.0 5.0 0.00 0.00 0.00 64 1020.0
20260510130007 44 83 1.0 5.0 0.00 0.00 0.00 66 1020.0
20260510125505 44 338 1.0 5.0 0.00 0.00 0.00 67 1020.0
20260510125008 43 113 1.0 5.0 0.00 0.00 0.00 68 1019.9
20260510124503 43 41 2.0 5.0 0.00 0.00 0.00 68 1019.9
20260510124002 42 298 2.0 5.0 0.00 0.00 0.00 70 1019.8
20260510123503 41 279 2.0 4.0 0.00 0.00 0.00 72 1019.8
20260510123006 41 296 1.0 3.0 0.00 0.00 0.00 72 1019.8
20260510122501 40 279 0.0 3.0 0.00 0.00 0.00 73 1019.7
20260510122004 40 282 1.0 3.0 0.00 0.00 0.00 74 1019.7
20260510121514 40 309 1.0 4.0 0.00 0.00 0.00 74 1019.5
20260510121003 39 254 2.0 7.0 0.00 0.00 0.00 75 1019.5
20260510120504 39 286 3.0 7.0 0.00 0.00 0.00 76 1019.4
20260510120021 39 252 2.0 4.0 0.00 0.00 0.00 78 1019.3
20260510115506 38 287 2.0 5.0 0.00 0.00 0.00 78 1019.2
20260510115003 38 250 2.0 5.0 0.00 0.00 0.00 78 1019.1
20260510114513 38 257 2.0 4.0 0.00 0.00 0.00 78 1019.1
20260510114002 38 259 2.0 5.0 0.00 0.00 0.00 78 1019.1
20260510113502 38 272 2.0 5.0 0.00 0.00 0.00 78 1018.9
20260510113008 38 257 1.0 3.0 0.00 0.00 0.00 79 1018.8
20260510112503 38 265 1.0 2.0 0.00 0.00 0.00 78 1018.8
20260510112007 38 309 1.0 3.0 0.00 0.00 0.00 79 1018.9
20260510111503 38 265 1.0 3.0 0.00 0.00 0.00 79 1018.8
20260510111003 38 265 1.0 3.0 0.00 0.00 0.00 79 1018.8
20260510110506 38 250 1.0 3.0 0.00 0.00 0.00 79 1018.7
20260510110022 38 265 1.0 3.0 0.00 0.00 0.00 80 1018.7
20260510105502 38 227 1.0 3.0 0.00 0.00 0.00 80 1018.7
20260510105003 38 225 1.0 2.0 0.00 0.00 0.00 79 1018.6
20260510104503 38 291 0.0 3.0 0.00 0.00 0.00 79 1018.5
20260510104005 37 309 1.0 5.0 0.00 0.00 0.00 79 1018.4
20260510103503 37 221 1.0 5.0 0.00 0.00 0.00 79 1018.4
20260510103009 37 341 1.0 4.0 0.00 0.00 0.00 80 1018.4
20260510102507 37 189 2.0 4.0 0.00 0.00 0.00 79 1018.1
20260510102003 37 275 1.0 4.0 0.00 0.00 0.00 80 1018.3
20260510101515 37 249 1.0 4.0 0.00 0.00 0.00 79 1018.1
20260510101005 37 230 1.0 3.0 0.00 0.00 0.00 78 1018.0
20260510100506 37 282 0.0 3.0 0.00 0.00 0.00 79 1017.9
20260510100012 38 265 1.0 3.0 0.00 0.00 0.00 79 1017.8
20260510095504 38 265 1.0 3.0 0.00 0.00 0.00 79 1017.7
20260510095009 38 219 2.0 4.0 0.00 0.00 0.00 78 1017.5
20260510094520 38 265 1.0 5.0 0.00 0.00 0.00 78 1017.6
20260510094002 38 245 2.0 5.0 0.00 0.00 0.00 79 1017.5
20260510093502 38 265 2.0 4.0 0.00 0.00 0.00 80 1017.6
20260510093012 38 259 2.0 4.0 0.00 0.00 0.00 80 1017.5
20260510092504 38 221 1.0 3.0 0.00 0.00 0.00 80 1017.4
20260510092008 38 273 2.0 4.0 0.00 0.00 0.00 80 1017.4
20260510091519 38 218 2.0 4.0 0.00 0.00 0.00 80 1017.4
20260510091003 38 255 1.0 4.0 0.00 0.00 0.00 81 1017.4
20260510090503 38 238 2.0 4.0 0.00 0.00 0.00 80 1017.4
20260510090020 38 232 1.0 3.0 0.00 0.00 0.00 80 1017.2
20260510085509 38 242 1.0 3.0 0.00 0.00 0.00 80 1017.2
20260510085007 38 247 2.0 3.0 0.00 0.00 0.00 80 1017.2
20260510084514 38 243 1.0 3.0 0.00 0.00 0.00 80 1017.1
20260510084003 38 227 2.0 4.0 0.00 0.00 0.00 80 1017.0
20260510083503 38 221 2.0 4.0 0.00 0.00 0.00 79 1017.0
20260510083013 38 234 1.0 4.0 0.00 0.00 0.00 79 1017.0
20260510082506 38 221 2.0 4.0 0.00 0.00 0.00 78 1016.9
20260510082013 38 226 2.0 4.0 0.00 0.00 0.00 77 1016.8
20260510081510 38 247 2.0 4.0 0.00 0.00 0.00 76 1016.8
20260510081007 38 212 1.0 3.0 0.00 0.00 0.00 75 1016.7
20260510080509 38 221 2.0 3.0 0.00 0.00 0.00 75 1016.8
20260510080028 38 238 1.0 3.0 0.00 0.00 0.00 73 1016.7
20260510075503 38 190 2.0 3.0 0.00 0.00 0.00 72 1016.7
20260510075007 39 236 2.0 3.0 0.00 0.00 0.00 71 1016.6
20260510074510 39 257 2.0 3.0 0.00 0.00 0.00 71 1016.6
20260510074002 39 196 1.0 3.0 0.00 0.00 0.00 70 1016.4
20260510073505 39 249 1.0 2.0 0.00 0.00 0.00 69 1016.5
20260510073019 39 265 1.0 6.0 0.00 0.00 0.00 68 1016.5
20260510072509 39 230 1.0 6.0 0.00 0.00 0.00 68 1016.5
20260510072004 39 219 1.0 4.0 0.00 0.00 0.00 68 1016.4
20260510071520 40 230 1.0 4.0 0.00 0.00 0.00 68 1016.4
20260510071006 40 234 1.0 4.0 0.00 0.00 0.00 65 1016.4
20260510070502 40 232 2.0 4.0 0.00 0.00 0.00 64 1016.5
20260510070016 40 257 2.0 4.0 0.00 0.00 0.00 64 1016.5
20260510065507 41 249 1.0 2.0 0.00 0.00 0.00 62 1016.5
20260510065012 41 250 1.0 2.0 0.00 0.00 0.00 62 1016.6
20260510064507 41 51 0.0 2.0 0.00 0.00 0.00 62 1016.5
20260510064003 41 279 0.0 2.0 0.00 0.00 0.00 61 1016.4
20260510063505 42 275 1.0 2.0 0.00 0.00 0.00 61 1016.4
20260510063009 42 249 1.0 2.0 0.00 0.00 0.00 60 1016.3
20260510062506 42 221 1.0 2.0 0.00 0.00 0.00 59 1016.3
20260510062007 42 212 1.0 4.0 0.00 0.00 0.00 59 1016.3
20260510061522 42 243 1.0 4.0 0.00 0.00 0.00 59 1016.2
20260510061007 42 255 2.0 6.0 0.00 0.00 0.00 59 1016.2
20260510060507 43 265 2.0 6.0 0.00 0.00 0.00 58 1016.2
20260510060035 43 291 2.0 6.0 0.00 0.00 0.00 57 1016.3
20260510055509 43 272 2.0 7.0 0.00 0.00 0.00 55 1016.3
20260510055008 43 270 3.0 7.0 0.00 0.00 0.00 54 1016.2
20260510054510 44 265 1.0 4.0 0.00 0.00 0.00 52 1016.2
20260510054004 44 265 2.0 4.0 0.00 0.00 0.00 52 1016.0
20260510053504 45 273 2.0 3.0 0.00 0.00 0.00 52 1016.0
20260510053018 45 273 2.0 4.0 0.00 0.00 0.00 53 1015.9
20260510052509 45 257 1.0 4.0 0.00 0.00 0.00 50 1015.9
20260510052007 46 291 2.0 3.0 0.00 0.00 0.00 49 1015.9
20260510051516 46 291 1.0 3.0 0.00 0.00 0.00 50 1015.9
20260510051007 46 273 1.0 3.0 0.00 0.00 0.00 51 1015.9
20260510050508 47 282 0.0 4.0 0.00 0.00 0.00 50 1015.9
20260510050014 47 304 2.0 5.0 0.00 0.00 0.00 49 1016.0
20260510045509 47 309 3.0 7.0 0.00 0.00 0.00 48 1016.0
20260510045010 47 297 2.0 8.0 0.00 0.00 0.00 46 1016.0
20260510044507 47 338 3.0 10.0 0.00 0.00 0.00 45 1016.0
20260510044003 48 321 3.0 10.0 0.00 0.00 0.00 45 1016.1
20260510043506 48 313 4.0 9.0 0.00 0.00 0.00 45 1016.1
20260510043004 48 302 4.0 9.0 0.00 0.00 0.00 44 1015.9
20260510042507 48 311 4.0 10.0 0.00 0.00 0.00 44 1015.9
20260510042011 48 309 3.0 10.0 0.00 0.00 0.00 44 1015.8
20260510041524 49 311 5.0 8.0 0.00 0.00 0.00 43 1015.8
20260510041003 49 298 4.0 9.0 0.00 0.00 0.00 43 1015.7
20260510040504 49 321 4.0 10.0 0.00 0.00 0.00 43 1015.7
20260510040006 49 324 5.0 10.0 0.00 0.00 0.00 42 1015.7
20260510035504 49 321 4.0 9.0 0.00 0.00 0.00 42 1015.6
20260510035005 50 324 4.0 8.0 0.00 0.00 0.00 41 1015.6
20260510034522 50 311 3.0 8.0 0.00 0.00 0.00 41 1015.5
20260510034006 50 317 4.0 9.0 0.00 0.00 0.00 41 1015.5
20260510033507 50 281 5.0 11.0 0.00 0.00 0.00 41 1015.4
20260510033014 50 312 3.0 11.0 0.00 0.00 0.00 41 1015.4
20260510032508 50 279 5.0 13.0 0.00 0.00 0.00 40 1015.4
20260510032008 50 286 7.0 13.0 0.00 0.00 0.00 40 1015.2
20260510031514 50 317 6.0 12.0 0.00 0.00 0.00 41 1015.1
20260510031003 50 295 5.0 11.0 0.00 0.00 0.00 41 1015.1
20260510030503 50 300 3.0 9.0 0.00 0.00 0.00 40 1015.0
20260510030016 50 293 4.0 10.0 0.00 0.00 0.00 40 1015.0
20260510025506 51 291 3.0 10.0 0.00 0.00 0.00 40 1014.9
20260510025004 51 304 4.0 10.0 0.00 0.00 0.00 40 1014.9
20260510024523 51 307 5.0 10.0 0.00 0.00 0.00 40 1014.8
20260510024006 51 252 4.0 9.0 0.00 0.00 0.00 39 1014.6
20260510023506 51 317 5.0 9.0 0.00 0.00 0.00 39 1014.5
20260510023023 51 309 3.0 9.0 0.00 0.00 0.00 39 1014.5
20260510022503 52 273 5.0 10.0 0.00 0.00 0.00 38 1014.4
20260510022007 52 241 5.0 10.0 0.00 0.00 0.00 37 1014.3
20260510021527 52 286 5.0 10.0 0.00 0.00 0.00 37 1014.2
20260510021004 52 311 5.0 10.0 0.00 0.00 0.00 37 1014.1
20260510020502 52 252 4.0 10.0 0.00 0.00 0.00 36 1014.0
20260510020010 53 293 4.0 14.0 0.00 0.00 0.00 36 1013.8
20260510015503 53 309 5.0 14.0 0.00 0.00 0.00 36 1013.7
20260510015005 53 324 5.0 11.0 0.00 0.00 0.00 35 1013.5
20260510014520 53 262 4.0 10.0 0.00 0.00 0.00 35 1013.4
20260510014008 54 275 4.0 12.0 0.00 0.00 0.00 35 1013.3
20260510013510 54 265 5.0 14.0 0.00 0.00 0.00 34 1013.3
20260510013024 54 324 6.0 14.0 0.00 0.00 0.00 34 1013.2
20260510012506 54 321 7.0 14.0 0.00 0.00 0.00 34 1013.2
20260510012007 54 293 6.0 18.0 0.00 0.00 0.00 33 1013.0
20260510011530 55 275 9.0 18.0 0.00 0.00 0.00 33 1012.9
20260510011010 55 275 9.0 17.0 0.00 0.00 0.00 33 1012.8
20260510010508 55 272 6.0 14.0 0.00 0.00 0.00 34 1012.8
20260510010023 55 249 5.0 14.0 0.00 0.00 0.00 33 1012.8
20260510005508 56 261 7.0 14.0 0.00 0.00 0.00 33 1012.6
20260510005006 56 277 7.0 16.0 0.00 0.00 0.00 32 1012.4
20260510004523 56 277 7.0 16.0 0.00 0.00 0.00 32 1012.4
20260510004007 56 321 6.0 16.0 0.00 0.00 0.00 32 1012.3
20260510003509 57 319 8.0 15.0 0.00 0.00 0.00 31 1012.3
20260510003033 57 296 6.0 17.0 0.00 0.00 0.00 31 1012.4
20260510002509 57 287 8.0 18.0 0.00 0.00 0.00 31 1012.3
20260510002013 58 281 9.0 18.0 0.00 0.00 0.00 31 1012.3
20260510001529 58 286 5.0 20.0 0.00 0.00 0.00 30 1012.3
20260510001007 58 307 6.0 20.0 0.00 0.00 0.00 31 1012.3
20260510000510 58 270 10.0 19.0 0.00 0.00 0.00 30 1012.2
20260510000027 58 242 12.0 19.0 0.00 0.00 0.00 29 1012.1
20260509235506 58 300 7.0 19.0 0.00 0.00 0.00 29 1012.0
20260509235009 59 305 12.0 20.0 0.00 0.00 0.00 29 1012.1
20260509234534 59 319 11.0 21.0 0.00 0.00 0.00 30 1012.1
20260509234008 59 291 12.0 21.0 0.00 0.00 0.00 30 1012.0
20260509233508 59 324 6.0 20.0 0.00 0.00 0.00 29 1011.8
20260509233024 59 309 11.0 20.0 0.00 0.00 0.00 30 1011.8
20260509232511 59 290 10.0 19.0 0.00 0.00 0.00 28 1011.8
20260509232010 59 307 6.0 23.0 0.00 0.00 0.00 31 1011.8
20260509231528 59 327 11.0 23.0 0.00 0.00 0.00 30 1011.7
20260509231010 59 316 11.0 23.0 0.00 0.00 0.00 29 1011.6
20260509230510 60 316 11.0 22.0 0.00 0.00 0.00 28 1011.5
20260509230021 60 287 11.0 19.0 0.00 0.00 0.00 28 1011.5
20260509225510 60 316 7.0 15.0 0.00 0.00 0.00 28 1011.3
20260509225007 61 11 6.0 17.0 0.00 0.00 0.00 29 1011.2
20260509224504 61 298 9.0 17.0 0.00 0.00 0.00 29 1011.1
20260509224003 61 314 6.0 16.0 0.00 0.00 0.00 27 1011.2
20260509223506 60 178 4.0 16.0 0.00 0.00 0.00 28 1011.1
20260509223004 61 337 7.0 19.0 0.00 0.00 0.00 28 1011.1
20260509222503 61 15 9.0 22.0 0.00 0.00 0.00 27 1011.1
20260509222003 61 298 6.0 22.0 0.00 0.00 0.00 31 1011.0
20260509221504 61 306 7.0 21.0 0.00 0.00 0.00 28 1010.9
20260509221003 61 279 5.0 21.0 0.00 0.00 0.00 29 1010.8
20260509220503 61 286 9.0 20.0 0.00 0.00 0.00 29 1010.8
20260509220008 61 281 9.0 23.0 0.00 0.00 0.00 29 1010.8
20260509215506 60 259 11.0 24.0 0.00 0.00 0.00 30 1010.9
20260509215003 61 312 13.0 24.0 0.00 0.00 0.00 28 1011.0
20260509214502 61 310 7.0 21.0 0.00 0.00 0.00 28 1010.9
20260509214007 61 9 10.0 21.0 0.00 0.00 0.00 28 1010.8
20260509213502 61 297 8.0 22.0 0.00 0.00 0.00 29 1010.7
20260509213004 61 298 9.0 22.0 0.00 0.00 0.00 31 1010.7
20260509212503 61 252 10.0 20.0 0.00 0.00 0.00 30 1010.5
20260509212005 62 323 7.0 20.0 0.00 0.00 0.00 29 1010.4
20260509211506 62 344 9.0 19.0 0.00 0.00 0.00 31 1010.5
20260509211002 62 93 2.0 20.0 0.00 0.00 0.00 37 1010.4
20260509210502 61 307 7.0 20.0 0.00 0.00 0.00 30 1010.3
20260509210004 60 300 9.0 19.0 0.00 0.00 0.00 34 1010.2
20260509205501 60 247 8.0 23.0 0.00 0.00 0.00 31 1010.3
20260509205003 60 313 13.0 25.0 0.00 0.00 0.00 30 1010.2
20260509204507 60 306 14.0 25.0 0.00 0.00 0.00 31 1010.3
20260509204003 60 292 12.0 23.0 0.00 0.00 0.00 29 1010.1
20260509203502 60 284 8.0 21.0 0.00 0.00 0.00 33 1010.4
20260509203010 60 26 9.0 21.0 0.00 0.00 0.00 31 1010.6
20260509202503 60 295 13.0 22.0 0.00 0.00 0.00 31 1010.3
20260509202003 60 305 13.0 25.0 0.00 0.00 0.00 30 1010.4
20260509201504 61 273 15.0 25.0 0.00 0.00 0.00 31 1010.4
20260509201002 61 280 5.0 17.0 0.00 0.00 0.00 37 1010.2
20260509200502 61 301 9.0 21.0 0.00 0.00 0.00 33 1010.2
20260509200005 61 287 4.0 21.0 0.00 0.00 0.00 34 1010.1
20260509195504 60 63 4.0 25.0 0.00 0.00 0.00 32 1010.2
20260509195003 61 34 10.0 25.0 0.00 0.00 0.00 30 1010.1
20260509194504 60 43 7.0 23.0 0.00 0.00 0.00 34 1009.9
20260509194003 60 319 10.0 23.0 0.00 0.00 0.00 35 1010.0
20260509193503 60 307 11.0 22.0 0.00 0.00 0.00 32 1009.9
20260509193004 60 338 10.0 25.0 0.00 0.00 0.00 31 1010.0
20260509192503 60 24 9.0 25.0 0.00 0.00 0.00 30 1009.9
20260509192003 60 346 6.0 21.0 0.00 0.00 0.00 36 1009.8
20260509191513 60 275 10.0 20.0 0.00 0.00 0.00 35 1009.8
20260509191005 59 13 10.0 23.0 0.00 0.00 0.00 36 1009.9
20260509190502 60 277 12.0 23.0 0.00 0.00 0.00 32 1009.9
20260509190008 60 279 8.0 18.0 0.00 0.00 0.00 34 1009.7
20260509185502 60 351 7.0 19.0 0.00 0.00 0.00 39 1009.8
20260509185002 59 296 10.0 21.0 0.00 0.00 0.00 38 1009.7
20260509184507 60 23 12.0 21.0 0.00 0.00 0.00 39 1009.6
20260509184002 60 153 7.0 20.0 0.00 0.00 0.00 40 1009.4
20260509183502 59 334 8.0 20.0 0.00 0.00 0.00 37 1009.6
20260509183010 59 287 8.0 24.0 0.00 0.00 0.00 37 1009.6
20260509182503 59 325 8.0 25.0 0.00 0.00 0.00 37 1009.6
20260509182006 60 317 12.0 25.0 0.00 0.00 0.00 35 1009.4
20260509181505 60 339 10.0 22.0 0.00 0.00 0.00 37 1009.3
20260509181002 60 257 7.0 20.0 0.00 0.00 0.00 45 1009.3
20260509180503 60 324 9.0 20.0 0.00 0.00 0.00 37 1009.3
20260509180008 59 32 6.0 19.0 0.00 0.00 0.00 39 1009.3
20260509175504 59 312 12.0 19.0 0.00 0.00 0.00 38 1009.3
20260509175004 59 22 10.0 19.0 0.00 0.00 0.00 36 1009.2
20260509174510 60 52 10.0 19.0 0.00 0.00 0.00 35 1009.1
20260509174005 60 315 7.0 19.0 0.00 0.00 0.00 40 1009.1
20260509173502 60 305 10.0 22.0 0.00 0.00 0.00 39 1009.1
20260509173010 59 262 13.0 24.0 0.00 0.00 0.00 38 1009.0
20260509172504 59 305 12.0 24.0 0.00 0.00 0.00 34 1009.2
20260509172003 59 291 11.0 24.0 0.00 0.00 0.00 37 1009.1
20260509171511 59 336 12.0 25.0 0.00 0.00 0.00 36 1009.0
20260509171005 59 273 11.0 25.0 0.00 0.00 0.00 36 1008.9
20260509170503 59 196 9.0 21.0 0.00 0.00 0.00 38 1008.9
20260509170013 59 265 7.0 25.0 0.00 0.00 0.00 36 1008.9
20260509165502 59 330 9.0 25.0 0.00 0.00 0.00 37 1009.0
20260509165002 59 280 11.0 19.0 0.00 0.00 0.00 35 1008.8
20260509164513 59 292 10.0 19.0 0.00 0.00 0.00 38 1008.7
20260509164009 58 208 11.0 22.0 0.00 0.00 0.00 41 1008.7
20260509163505 58 293 10.0 23.0 0.00 0.00 0.00 38 1008.7
20260509163021 58 45 8.0 23.0 0.00 0.00 0.00 37 1008.6
20260509162507 58 311 8.0 21.0 0.00 0.00 0.00 39 1008.6
20260509162006 58 165 8.0 22.0 0.00 0.00 0.00 41 1008.5
20260509161527 58 289 9.0 22.0 0.00 0.00 0.00 41 1008.2
20260509161006 57 15 10.0 22.0 0.00 0.00 0.00 40 1008.5
20260509160506 57 327 7.0 25.0 0.00 0.00 0.00 42 1008.2
20260509160022 57 308 9.0 25.0 0.00 0.00 0.00 44 1008.2
20260509155506 57 333 12.0 19.0 0.00 0.00 0.00 43 1008.2
20260509155008 57 323 8.0 22.0 0.00 0.00 0.00 43 1008.1
20260509154514 57 329 6.0 22.0 0.00 0.00 0.00 44 1008.1
20260509154007 57 38 7.0 17.0 0.00 0.00 0.00 46 1008.1
20260509153512 56 309 6.0 17.0 0.00 0.00 0.00 46 1007.9
20260509153014 56 337 8.0 17.0 0.00 0.00 0.00 46 1007.9
20260509152505 56 334 8.0 16.0 0.00 0.00 0.00 47 1007.9
20260509152009 56 315 8.0 20.0 0.00 0.00 0.00 47 1007.9
20260509151521 55 297 11.0 20.0 0.00 0.00 0.00 47 1007.7
20260509151007 55 57 5.0 23.0 0.00 0.00 0.00 50 1007.7
20260509150509 55 324 10.0 23.0 0.00 0.00 0.00 49 1007.7
20260509150023 55 19 9.0 18.0 0.00 0.00 0.00 49 1007.7
20260509145506 54 196 5.0 15.0 0.00 0.00 0.00 54 1007.6
20260509145006 54 295 5.0 19.0 0.00 0.00 0.00 56 1007.6
20260509144517 53 323 8.0 19.0 0.00 0.00 0.00 57 1007.4
20260509144006 53 93 7.0 19.0 0.00 0.00 0.00 56 1007.4
20260509143508 52 311 9.0 19.0 0.00 0.00 0.00 58 1007.3
20260509143023 52 297 9.0 18.0 0.00 0.00 0.00 60 1007.3
20260509142509 52 360 9.0 18.0 0.00 0.00 0.00 61 1007.2
20260509142005 52 331 11.0 18.0 0.00 0.00 0.00 62 1007.1
20260509141524 51 80 7.0 21.0 0.00 0.00 0.00 65 1007.0
20260509141008 51 348 6.0 21.0 0.00 0.00 0.00 63 1007.0
20260509140509 51 303 6.0 20.0 0.00 0.00 0.00 65 1006.8
20260509140018 51 18 6.0 20.0 0.00 0.00 0.00 66 1006.8
20260509135513 52 332 10.0 20.0 0.00 0.00 0.00 66 1006.6
20260509135009 52 338 6.0 19.0 0.00 0.00 0.00 67 1006.5
20260509134518 52 340 7.0 19.0 0.00 0.00 0.00 67 1006.4